This is the latest recevied weather packets stored in our database for station/object M0IQF-13. If no packets are shown the sender has not sent any weather packets the latest 10 day(s).
| Time | Temp. | Humidity | Pressure | Rain* | Wind** | Luminosity | Snow |
|---|---|---|---|---|---|---|---|
| 1777221566 | 26.67° C | 25% | 1022.7 hPa | - | - | - | - |
| 1777220659 | 27.22° C | 24% | 1022.6 hPa | - | - | - | - |
| 1777219752 | 27.78° C | 24% | 1022.7 hPa | - | - | - | - |
| 1777218845 | 28.33° C | 23% | 1022.9 hPa | - | - | - | - |
| 1777217937 | 28.89° C | 22% | 1022.9 hPa | - | - | - | - |
| 1777217030 | 28.89° C | 21% | 1023 hPa | - | - | - | - |
| 1777216123 | 28.89° C | 22% | 1023 hPa | - | - | - | - |
| 1777215216 | 28.89° C | 22% | 1023 hPa | - | - | - | - |
| 1777214309 | 28.89° C | 21% | 1023.1 hPa | - | - | - | - |
| 1777213403 | 28.89° C | 21% | 1023.2 hPa | - | - | - | - |
| 1777212495 | 30.56° C | 21% | 1023.4 hPa | - | - | - | - |
| 1777211588 | 30° C | 21% | 1023.5 hPa | - | - | - | - |
| 1777210681 | 32.22° C | 20% | 1023.6 hPa | - | - | - | - |
| 1777209774 | 32.22° C | 20% | 1023.7 hPa | - | - | - | - |
| 1777208867 | 32.22° C | 20% | 1023.8 hPa | - | - | - | - |
| 1777207960 | 33.33° C | 20% | 1023.8 hPa | - | - | - | - |
| 1777207053 | 32.22° C | 21% | 1023.9 hPa | - | - | - | - |
| 1777206145 | 31.11° C | 21% | 1023.9 hPa | - | - | - | - |
| 1777205238 | 32.22° C | 21% | 1023.9 hPa | - | - | - | - |
| 1777204331 | 31.67° C | 21% | 1024 hPa | - | - | - | - |
| 1777203425 | 31.67° C | 22% | 1024.1 hPa | - | - | - | - |
| 1777202517 | 30.56° C | 24% | 1024.3 hPa | - | - | - | - |
| 1777201610 | 30° C | 25% | 1024.4 hPa | - | - | - | - |
| 1777200703 | 31.11° C | 24% | 1024.4 hPa | - | - | - | - |
| 1777199796 | 28.89° C | 26% | 1024.3 hPa | - | - | - | - |
* Rain since midnight (hover to see other rain measurements)
** Current wind speed in m/s (hover to see current wind gust speed)